Weather History for Nome, AK

Change the Weather History Date:

Friday, February 8, 2013

  Actual Average Record
Temperature  
Mean Temperature -4 °F -  
Max Temperature -1 °F 14 °F 47 °F (1947)
Min Temperature -6 °F -1 °F -42 °F (1978)
Degree Days  
Heating Degree Days 69 58  
Month to date heating degree days 462 472  
Since 1 July heating degree days 8179 8143  
Cooling Degree Days 0    
Month to date cooling degree days 0  
Year to date cooling degree days 0  
Moisture  
Dew Point -12 °F    
Average Humidity 0    
Maximum Humidity 0    
Minimum Humidity 0    
Precipitation  
Precipitation T in 0.03 in 0.39 in (1980)
Month to date precipitation 0.04 0.26  
Year to date precipitation 1.20 1.20  
Snow  
Snow 0.10 in 0.40 in 3.90 in (1980)
Month to date snowfall 1.0 3.3  
Since 1 July snowfall 34.8 47.8  
Snow Depth 26.00 in    
Sea Level Pressure  
Sea Level Pressure 29.67 in    
Wind  
Wind Speed 10 mph (North)    
Max Wind Speed 16 mph    
Max Gust Speed 17 mph    
Visibility 8 miles    
Events Snow    
T = Trace of Precipitation, MM = Missing Value Source: NWS Daily Summary

Daily Weather History Graph

Daily Weather History Graph

Search for Another Location

Airport:

Trip Planner

Search our weather history database for the weather conditions in past years. The results will help you decide how hot, cold, wet, or windy it might be!

Date:

Astronomy

Feb. 08, 2013 Rise Set
Actual Time 10:20 AM AKST 6:12 PM AKST
Civil Twilight 9:26 AM AKST 7:06 PM AKST
Nautical Twilight 8:28 AM AKST 8:05 PM AKST
Astronomical Twilight 7:32 AM AKST 9:01 PM AKST
Moon 9:14 AM AKST (2/8) 4:51 PM AKST (2/8)
Length of Visible Light 9h 40m
Length of Day
7h 51m
Waning Crescent, 3% of the Moon is Illuminated
Feb 8
Waning Crescent
Feb 9
New
Feb 17
First Quarter
Feb 25
Full
Mar 4
Last Quarter

Hourly Weather History & Observations

Time (AKST) Temp. Windchill Dew Point Humidity Pressure Visibility Wind Dir Wind Speed Gust Speed Precip Events Conditions
12:53 AM -4.0 °F - -14.1 °F 62% 29.51 in 10.0 mi Calm Calm - N/A   Mostly Cloudy
1:53 AM -4.0 °F -14.6 °F -14.1 °F 62% 29.52 in 10.0 mi NNW 4.6 mph - N/A   Mostly Cloudy
3:53 AM -5.1 °F -24.3 °F -14.1 °F 65% 29.55 in 10.0 mi NNW 12.7 mph - N/A   Overcast
4:53 AM -2.9 °F -21.6 °F -14.1 °F 59% 29.58 in 10.0 mi North 12.7 mph - N/A   Overcast
5:53 AM -6.0 °F -24.6 °F -15.0 °F 65% 29.60 in 10.0 mi NNW 11.5 mph - N/A   Overcast
6:53 AM -4.0 °F -21.2 °F -14.8 °F 60% 29.62 in 10.0 mi NNW 10.4 mph - N/A   Overcast
7:53 AM -4.0 °F -20.2 °F -13.0 °F 65% 29.62 in 10.0 mi North 9.2 mph - N/A   Overcast
8:53 AM -4.0 °F -21.2 °F -14.1 °F 62% 29.64 in 10.0 mi NNW 10.4 mph - N/A   Overcast
9:53 AM -5.1 °F -23.5 °F -15.0 °F 62% 29.66 in 10.0 mi North 11.5 mph - N/A   Mostly Cloudy
10:53 AM -6.0 °F -23.6 °F -15.0 °F 65% 29.68 in 10.0 mi NNW 10.4 mph - N/A   Overcast
11:53 AM -5.1 °F -23.5 °F -15.0 °F 62% 29.70 in 10.0 mi North 11.5 mph - N/A   Overcast
12:53 PM -5.1 °F -23.5 °F -14.1 °F 65% 29.72 in 7.0 mi NNW 11.5 mph - N/A   Overcast
1:53 PM -2.9 °F -17.7 °F -11.9 °F 65% 29.73 in 9.0 mi NNW 8.1 mph - 0.00 in   Mostly Cloudy
2:53 PM -2.9 °F -23.1 °F -11.9 °F 65% 29.73 in 10.0 mi North 15.0 mph - N/A   Overcast
3:53 PM -2.0 °F -10.1 °F -11.0 °F 66% 29.74 in 7.0 mi East 3.5 mph - N/A   Overcast
4:53 PM -5.1 °F -22.5 °F -11.9 °F 72% 29.73 in 9.0 mi North 10.4 mph - N/A   Mostly Cloudy
5:53 PM -4.0 °F -20.2 °F -13.0 °F 65% 29.71 in 9.0 mi NNW 9.2 mph - N/A   Mostly Cloudy
6:53 PM -4.0 °F -21.2 °F -11.0 °F 72% 29.71 in 4.0 mi North 10.4 mph - 0.00 in Snow Light Snow
7:53 PM -4.0 °F -22.1 °F -11.0 °F 72% 29.72 in 5.0 mi NNW 11.5 mph - 0.00 in Snow Light Snow
8:14 PM -2.2 °F -18.9 °F -9.4 °F 71% 29.71 in 4.0 mi NNW 10.4 mph - 0.00 in Snow Light Snow
8:53 PM -2.0 °F -15.4 °F -9.0 °F 72% 29.71 in 7.0 mi North 6.9 mph - 0.00 in Snow Light Snow
9:53 PM -2.9 °F -18.8 °F -9.0 °F 75% 29.68 in 4.0 mi North 9.2 mph - 0.00 in Snow Light Snow
10:00 PM -2.2 °F -12.5 °F -7.6 °F 78% 29.70 in 2.5 mi ENE 4.6 mph - 0.00 in Snow Light Snow
10:17 PM -2.2 °F -18.0 °F -7.6 °F 78% 29.69 in 3.0 mi North 9.2 mph - 0.00 in Snow Light Snow
10:53 PM -2.0 °F -18.7 °F -7.1 °F 79% 29.68 in 3.0 mi North 10.4 mph - 0.00 in Snow Light Snow
11:29 PM -2.2 °F -22.2 °F -9.4 °F 71% 29.67 in 8.0 mi North 15.0 mph 19.6 mph 0.00 in Snow Light Snow
11:53 PM -2.0 °F -22.6 °F -8.0 °F 76% 29.68 in 8.0 mi North 16.1 mph 19.6 mph 0.00 in Snow Light Snow